Hourly Data Report for September 20, 2017

All times are specified in Local Standard Time (LST). Add 1 hour to adjust for Daylight Saving Time where and when it is observed.

ST. STEPHEN
NEW BRUNSWICK

45°12'36.600" N
67°15'10.300" W
26.10 m
8104935
71607
WSS

Download Data

Hourly Data (September 2017)
Hourly Data Report for September 20, 2017
Temp Definition
°C
Dew Point Temp Definition
°C
Rel Hum Definition
%
Wind Dir Definition
10's deg

Wind Spd Definition
km/h
Visibility Definition
km
Stn Press Definition
kPa
Hmdx Definition


Wind Chill Definition


Weather Definition


TIME
00:00 16.8 16.2 96   0   101.59     LegendNANA
01:00 17.1 16.5 97   0   101.56     LegendNANA
02:00 17.3 16.8 97   0   101.53     LegendNANA
03:00 17.7 17.2 97   0   101.47     LegendNANA
04:00 18.8 18.3 97 6 6   101.45     LegendNANA
05:00 19.1 18.6 97 4 7   101.43     LegendNANA
06:00 19.1 18.6 97 2 7   101.42     LegendNANA
07:00 19.2 18.7 97 7 6   101.41     LegendNANA
08:00 19.7 19.1 96 6 4   101.40     LegendNANA
09:00 20.7 19.4 92 3 7   101.41 28   LegendNANA
10:00 21.2 19.2 88 3 10   101.38 28   LegendNANA
11:00 21.5 19.4 88 4 10   101.33 29   LegendNANA
12:00 21.5 19.1 86 5 12   101.31 28   LegendNANA
13:00 22.1 19.4 85 3 10   101.27 29   LegendNANA
14:00 22.6 19.4 82 2 9   101.22 30   LegendNANA
15:00 23.6 19.4 77 1 13   101.16 31   LegendNANA
16:00 23.8 19.1 75 4 11   101.14 31   LegendNANA
17:00 23.5 19.3 77 1 7   101.12 31   LegendNANA
18:00 22.4 19.4 83 6 5   101.13 29   LegendNANA
19:00 20.4 19.0 91 5 3   101.14 27   LegendNANA
20:00 19.5 18.4 93 32 3   101.17     LegendNANA
21:00 18.2 17.3 94   0   101.21     LegendNANA
22:00 19.8 18.1 90 35 7   101.23     LegendNANA
23:00 20.5 18.4 88 3 11   101.27 27   LegendNANA

Notes on Data Quality.

Legend

  • E = Estimated
  • M = Missing
  • NA = Not Available
  • ‡ = Partner data that is not subject to review by the National Climate Archives
Date modified: